Aérodrome :
LOGIN :

S'inscrire | Disclaimer

   EN    FR    IT 

 










Légende :    VFR   VFR Marginal   IFR   IFR Intensif   IFR Très Intensif
Visi : 
Plafond : 
>= 8 km
>= 3000ft
5 à 8 km
1000 à 3000 ft
1500m à 5 km
500 à 1000 ft
800 à 1500m
200 à 500 ft
< 800m
< 200 ft
Symboles :   Orages  Brouillard  Fortes neiges  Fortes précipitations  Vent > 20 kt
SIGMETs :   Divers  Orages  Givrage  Turbulence  Onde Orograph.  Cendres Volcan.







- Altitude de l'aérodrome : 386 ft
- Code IATA : QOE


ETNN - Nörvenich Airforce Base

DERNIER METAR :
  • 280620Z 17005KT 9999 FEW030 SCT050 BKN090 18/16 Q0998 BLU BLU TEMPO WHT

METARs EXPIRÉS :
  • 280520Z VRB03KT 9999 -RA FEW030 SCT050 BKN100 17/16 Q0998 RERA BLU BLU TEMPO WHT
  • 280420Z VRB03KT 8000 RA FEW030 BKN050 17/16 Q0998 BLU BLU TEMPO WHT

TAF TAF ETNN
Valide du 28 à 05h jusqu'au 28 à 14h UTC


280400Z 2805/2814 19005KT 9999 NSW FEW030 BKN050 BKN100
TEMPO 2805/2814 20010KT 6000 RA SCT010 BKN020
PROB30 2805/2814 VRB15G30KT 3000 TSRA BKN010 BKN030CB BY ETGL
Pas de NOTAMs connus pour ce terrain.



MET'MAP, la Météo Aéronautique d'un coup d'oeil ! - Copyright ORBIFLY Décembre 2007 - Disclaimer

ORBIFLY MET'MAP TEAM :

Programmation & Développement : Alexandra Zaïnal
Conception & Développement : Baudouin d'Aumeries
Co-Programmation & Développement : Marc-Olivier Méhu
Soutien technique & logistique : Manuel Goepfert

Contact : metmap@orbifly.com




SOURCES & CREDITS :

   NOAA